(487710) = 2008 SH203 = 2015 RB45

Discovered at Kitt Peak on 2008-09-26 by Spacewatch.

Orbit

Orbit type: Main Belt

Note: WebGL enabled browser required.

epoch2024-03-31.0
epoch JD2460400.5
perihelion date2023-12-09.52662
perihelion JD2460288.02662
argument of perihelion (°)283.94234
ascending node (°)182.65405
inclination (°)6.60936
eccentricity0.1217338
perihelion distance (AU)2.0769369
Tisserand w.r.t. Jupiter3.5
ΔV w.r.t. Earth (km/sec)9.2
semimajor axis (AU)2.3648148
mean anomaly (°)30.48301
mean daily motion (°/day)0.27102420
aphelion distance (AU)2.653
period (years)3.64
P-vector [x]-0.28532937
P-vector [y]0.91778373
P-vector [z]0.27615244
Q-vector [x]-0.95841470
Q-vector [y]-0.27162242
Q-vector [z]-0.08753578
absolute magnitude18.25
phase slope0.15
uncertainty0
referenceMPEC 2024-C181
observations used152
oppositions11
arc length (days)7099
first opposition used2004
last opposition used2024
residual rms (arc-secs)0.78
perturbers coarse indicatorM-v
perturbers precise indicator003Ek
first observation date used2004-09-07.0
last observation date used2024-02-14.0
computer nameMPCLINUX
JD of orbit computation2457810.250478
perihelion JD uncertainty (days)7.6792E-05
argument of perihelion uncertainty (°)3.1254E-05
ascending node uncertainty (°)2.2454E-05
inclination uncertainty (°)4.7547E-06
eccentricity uncertainty 2.7709E-08
perihelion distance uncertainty (AU)6.3150E-08
Minimum Orbit Intersection Distances (in AU)
for orbit epoch: 2460400.5, reference: E2024-CI1
Mercury1.76799
Venus1.36888
Earth1.10569
Mars0.4999
Jupiter2.47149
Saturn6.95129
Uranus16.1999
Neptune27.4587

Observations

155 total observations over interval: 2004 09 07.33854 – 2024 02 14.259654
These data are available for download (format description).

